NOAA NWS Hourly Roundups by Site

Regional Weather Roundup for Seattle, WA

To Select Another Site Choose from List

Select Site:  

000
ASUS46 KSEW 151820
RWRWA

WASHINGTON REGIONAL WEATHER ROUNDUP
NATIONAL WEATHER SERVICE SEATTLE WA
1000 AM PST FRI NOV 15 2019

NOTE:"FAIR" INDICATES FEW OR NO CLOUDS BELOW 12,000 FEET WITH NO
SIGNIFICANT WEATHER AND/OR OBSTRUCTIONS TO VISIBILITY.

WAZ507-509-555>559-151900-
SEATTLE, TACOMA, EVERETT, AND VICINITY

CITY           SKY/WX    TMP DP  RH WIND       PRES   REMARKS
EVERETT        CLOUDY    51  48  89 S13       30.02R
6HR MIN TEMP:  47; 6HR MAX TEMP:  50; 6HR PCP:  0.06;

BOEING FIELD   PTSUNNY   54  50  86 S13       30.03R
6HR MIN TEMP:  47; 6HR MAX TEMP:  54; 6HR PCP:  0.08;

RENTON         CLOUDY    50  47  89 S5        30.05R
6HR MIN TEMP:  47; 6HR MAX TEMP:  50; 6HR PCP:  0.11;

SEATAC AIRPORT PTSUNNY   53  49  86 S14       30.04R
6HR MIN TEMP:  46; 6HR MAX TEMP:  52; 6HR PCP:  0.19;

JBLM-MCCHORD   CLOUDY    54  54 100 S10       30.06R
6HR MIN TEMP:  46; 6HR MAX TEMP:  54;

PUYALLUP       PTSUNNY   54  54 100 SW5G12    30.06R
BREMERTON      CLOUDY    50  49  96 S14       30.02R
6HR MIN TEMP:  45; 6HR MAX TEMP:  50;

JBLM-FT LEWIS  PTSUNNY   53  53 100 S10       30.05R
6HR MIN TEMP:  46; 6HR MAX TEMP:  53; 6HR PCP:  0.18;

TACOMA NARROWS CLOUDY    50  49  96 SW14G22   30.05R
6HR MIN TEMP:  45; 6HR MAX TEMP:  51;

$$

WAZ001-503-506-510-514-515-151900-
NORTH INTERIOR

CITY           SKY/WX    TMP DP  RH WIND       PRES   REMARKS
BELLINGHAM     CLOUDY    53  47  79 S13G24    29.98R
6HR MIN TEMP:  52; 6HR MAX TEMP:  54; 6HR PCP:  0.18;

FRIDAY HARBOR  CLOUDY    50  48  93 SE9       30.01R
6HR MIN TEMP:  49; 6HR MAX TEMP:  50; 6HR PCP:  0.04;

EASTSOUND      LGT RAIN  50  50 100 S17       29.97R
PORT ANGELES   CLOUDY    50  50 100 S5        30.01R
6HR MIN TEMP:  44; 6HR MAX TEMP:  50; 6HR PCP:  0.07;

EDIZ HOOK      RAIN      48  47  98 CALM      30.01R
6HR MIN TEMP:  46; 6HR MAX TEMP:  48; 6HR PCP:  0.08;

PORT TOWNSEND  PTSUNNY   52  50  93 CALM      29.99R
NAS WHIDBEY    CLOUDY    54  48  82 SE10      30.04R
6HR MIN TEMP:  51; 6HR MAX TEMP:  55; 6HR PCP:  0.14;

ARLINGTON      CLOUDY    51  48  89 SE6       30.02R
6HR MIN TEMP:  48; 6HR MAX TEMP:  53;

BURLINGTON       N/A     52  50  93 SE8G14    30.01R
$$

WAZ020-022-039-040-504-511-512-151900-
SOUTHWEST INTERIOR

CITY           SKY/WX    TMP DP  RH WIND       PRES   REMARKS
SHELTON        CLOUDY    54  52  93 SW14G21   30.02R
6HR MIN TEMP:  47; 6HR MAX TEMP:  54; 6HR PCP:  0.15;

OLYMPIA        PTSUNNY   52  50  93 SW8       30.08R
6HR MIN TEMP:  45; 6HR MAX TEMP:  51; 6HR PCP:  0.21;

CHEHALIS       PTSUNNY   52  50  93 S10       30.10R
KELSO          CLOUDY    50  49  96 S6        30.14R
6HR MIN TEMP:  46; 6HR MAX TEMP:  50; 6HR PCP:  0.09;

VANCOUVER      CLOUDY    51  48  89 E3        30.14R
6HR MIN TEMP:  47; 6HR MAX TEMP:  51; 6HR PCP:  0.11;

SCAPPOOSE, OR  CLOUDY    48  47  96 CALM      30.14R
6HR MIN TEMP:  47; 6HR MAX TEMP:  49; 6HR PCP:  0.05;

PORTLAND, OR   CLOUDY    49  47  93 E10       30.14R
6HR MIN TEMP:  47; 6HR MAX TEMP:  49; 6HR PCP:  0.11;

$$

WAZ021-516-517-151900-
WASHINGTON COAST

CITY           SKY/WX    TMP DP  RH WIND       PRES   REMARKS
FORKS          CLOUDY    53  52  96 SW8       30.04R
6HR MIN TEMP:  51; 6HR MAX TEMP:  54; 6HR PCP:  0.06;

HOQUIAM        CLOUDY    54  54 100 SW13      30.07R
6HR MIN TEMP:  50; 6HR MAX TEMP:  54; 6HR PCP:  0.04;

ASTORIA, OR    CLOUDY    56  55  97 SW7       30.10R
6HR MIN TEMP:  53; 6HR MAX TEMP:  56; 6HR PCP:  0.21;

$$

WAZ019-023-024-040-567>569-151900-
CASCADE MOUNTAINS AND COLUMBIA GORGE

CITY           SKY/WX    TMP DP  RH WIND       PRES   REMARKS
STAMPEDE PASS  NOT AVBL
TROUTDALE, OR  LGT RAIN  47  44  90 E8        30.14R
6HR MIN TEMP:  46; 6HR MAX TEMP:  48; 6HR PCP:  0.19;

HOOD RIVER, OR RAIN      43  41  93 CALM      30.15S
THE DALLES, OR CLOUDY    47  41  80 NW5       30.15R
6HR MIN TEMP:  43; 6HR MAX TEMP:  47;

$$

WAZ026-027-041>044-520-521-151900-
EAST SLOPES

CITY           SKY/WX    TMP DP  RH WIND       PRES   REMARKS
OMAK           CLOUDY    42  36  79 S10       30.06R
6HR MIN TEMP:  40; 6HR MAX TEMP:  42; 6HR PCP: TRACE;

WENATCHEE      CLOUDY    41  38  89 SE5       30.06R
6HR MIN TEMP:  39; 6HR MAX TEMP:  41; 6HR PCP: TRACE;

ELLENSBURG     CLOUDY    43  38  82 CALM      30.06R
6HR MIN TEMP:  41; 6HR MAX TEMP:  43;

YAKIMA         PTSUNNY   44  37  76 CALM      30.10R
6HR MIN TEMP:  41; 6HR MAX TEMP:  44;

SUNNYSIDE ARPT CLOUDY    44  41  90 E5        30.12
6HR MIN TEMP:  42; 6HR MAX TEMP:  43; 6HR PCP:  0.01;

YAKIMA TC      CLOUDY    43  36  75 S5        30.08R
6HR MIN TEMP:  40; 6HR MAX TEMP:  42;

$$

WAZ028-034-035-151900-
COLUMBIA BASIN

CITY           SKY/WX    TMP DP  RH WIND       PRES   REMARKS
EPHRATA        CLOUDY    42  40  92 S8        30.06S FOG
6HR MIN TEMP:  40; 6HR MAX TEMP:  42; 6HR PCP:  0.02;

MOSES LAKE     CLOUDY    44  40  85 S10       30.07S FOG
6HR MIN TEMP:  42; 6HR MAX TEMP:  44; 6HR PCP:  0.02;

PASCO          LGT RAIN  46  42  86 SE6       30.13R
6HR MIN TEMP:  44; 6HR MAX TEMP:  46; 6HR PCP:  0.02;

RICHLAND ARPT  CLOUDY    46  42  88 S12       30.13S
6HR MIN TEMP:  45; 6HR MAX TEMP:  46; 6HR PCP:  0.01;

HERMISTON, OR  LGT RAIN  46  42  86 S5        30.12S
6HR MIN TEMP:  42; 6HR MAX TEMP:  46; 6HR PCP: TRACE;

$$

WAZ036>038-151900-
NORTHEAST WASHINGTON

CITY           SKY/WX    TMP DP  RH WIND       PRES   REMARKS
SPOKANE GEIGER DRZL/FOG  36  34  92 SW9       30.08R VSB 1/4
6HR MIN TEMP:  33; 6HR MAX TEMP:  36; 6HR PCP: TRACE;

SPOKANE FELTS  CLOUDY    39  36  89 SW8       30.10R FOG
6HR MIN TEMP:  37; 6HR MAX TEMP:  39;

FAIRCHILD AFB  LGT RAIN  36  36 100 SW7       30.07R VSB 1
COEURDALENE,ID CLOUDY    37  37 100 W6        30.09R FOG
6HR MIN TEMP:  35; 6HR MAX TEMP:  37;

DEER PARK      FOG       36  34  92 SW5       30.09R VSB 1
6HR MIN TEMP:  30; 6HR MAX TEMP:  36;

$$

WAZ029>033-151900-
SOUTHEAST WASHINGTON

CITY           SKY/WX    TMP DP  RH WIND       PRES   REMARKS
PULLMAN        CLOUDY    39  38  96 S7        30.10R
6HR MIN TEMP:  37; 6HR MAX TEMP:  39;

LEWISTON, ID   CLOUDY    42  40  92 CALM      30.11R FOG
6HR MIN TEMP:  41; 6HR MAX TEMP:  42;

WALLA WALLA    CLOUDY    41  37  86 S6        30.12S
6HR MIN TEMP:  40; 6HR MAX TEMP:  41;

PENDLETON, OR  LGT RAIN  42  37  82 VRB3      30.11R
6HR MIN TEMP:  40; 6HR MAX TEMP:  42; 6HR PCP: TRACE;

$$


 

View Past Reports for Seattle, WA.

Products Courtesy of NOAA-NWS
NWS Information Parsing Script by Ken True at Saratoga Weather - Script by SE Lincoln Weather.